Zurück zum Katalog

COSMOS 1855

AktivMilitärLEO
NORAD 18116·PAYLOAD·🇷🇺 Russia

Gestartet Jun 16, 1987 von Plesetsk Cosmodrome

Loading…

Nächste Überflüge (nächste 24 Stunden)

TLE

AktuellSource: Space-Track

Epoche: Sep 14, 2026, 11:20 UTC

1 18116U 87051D   26257.47257130  .00000009  00000-0  16126-3 0  9997
2 18116  74.0050 158.8240 0019544 181.5049 289.5866 12.50734032791978

Verfolge COSMOS 1855 in Echtzeit mit AllMySat

Download on the App Store